FENGYUN 1C DEB, 38119

Orbit data source: Space-Track

FENGYUN 1C DEB, 38119 is space debris in SSO originally from a launch on Mon, 10 May 1999 UTC launched from the Taiyaun Space Center, China (TSC). Fengyun 1C debris stems from the Chinese weather satellite Fengyun-1C, which was intentionally destroyed by a Chinese anti-satellite missile in 2007. This event dramatically increased the amount of space debris, with thousands of trackable fragments posing hazards to satellites and human spaceflight. The Fengyun 1C debris cloud has become a focal point in discussions about space sustainability and the need for international regulations to prevent the creation of new debris.

Loading next visibility...
Identifier
38119, 1999-025EPQ
Orbit
SSO
Country
Flag of CNCN / PRC
Related business
Manufacturer
Unknown
Mission
Spacecraft
Bus & Motor
Unknown
Mass
Unknown
Launch date (UTC)
1999-05-10 (27 years ago)
Launch vehicle
Unknown
Launch site
Taiyaun Space Center, China (TSC)
Object type
Payload
Rocket body
Debris
Shape & HBR
Unknown shape, 0.1 m
Radar Cross Section
Small (<0.1 m²)

Expand to show TLE details & history
Last TLE update: 3 months ago

TLE from 3 months ago
0 FENGYUN 1C DEB
1 38119U 99025EPQ 26012.93739540  .00008734  00000-0  34585-2 0  9997
2 38119  98.5847  90.2229 0235774 141.7087 220.1095 14.15053945544510
Epoch: 2026-01-12T22:29Z
TLE epoch observation values (Epoch: 2026-01-12T22:29:50.962Z)
Latitude
-0.00003°
Longitude
0.33364°
Altitude
976.89 km
Speed
7.296 km/s
True Right ascension
06h 00m 53s
True Declination
0° 00' 00"
Sunlit
Object was in full shadow at epoch
Visualization orbit readout
Latitude
Unknown
Longitude
Unknown
Altitude
Unknown
Speed
Unknown
Apparent Right ascension
Unknown
Apparent Declination
Unknown
Sunlit
N/A
Visualization observer readout
Local Sidereal Time
12:16:58
Azimuth
Unknown
Elevation
Unknown
Doppler factor
Unknown
Orbital elements
Apogee altitude
1,009.454 km
Perigee altitude
669.118 km
Semi-major axis
7,217.423 km
Eccentricity
0.02358
Inclination
98.5847°
RAAN
90.2229°
Arg. of periapsis
141.7087°
True anomaly
218.40753°
Mean anomaly
220.1095°
Eccentric anomaly
219.2547°
Mean motion
3.53973 °/min
Orbital period
101.7 mins
BSTAR
0.0034585
Loading maneuver chart data...
Computing Atmospheric mass density...

Documentation

Showing up to 5 results
|